Location: Hlohovi?ky
(49.8934°N, 13.6739°E)
Time: 01:31:47
(UTC+00:00)

Cosmos 2056 Rocket - Pass Details

Date: 19 May 2025
Orbit: 739 x 796 km, 74.0° (Epoch: 23 June)

Event Time Altitude Azimuth Distance (km) Brightness Sun altitude
Rises 22:40:29 0° 338° (NNW) 3,288 8.1 -20.0°
Reaches altitude 10° 22:42:58 10° 343° (NNW) 2,348 7.2 -20.0°
Maximum altitude 22:48:11 54° 61° (ENE) 941 4.0 -20.1°
Enters shadow 22:50:56 26° 127° (SE) 1,464 4.6 -20.1°
